Change the Weather History Date:

Saturday, March 29, 2014

  Actual Average (KLWV) Record (KLWV)
Temperature  
Mean Temperature 40 °F 50 °F  
Max Temperature 44 °F 60 °F 81 °F (1998)
Min Temperature 35 °F 39 °F 29 °F (1992)
Degree Days  
Heating Degree Days 25 16  
Month to date heating degree days 590  
Since 1 July heating degree days 4265  
Cooling Degree Days 0 0  
Month to date cooling degree days 0  
Year to date cooling degree days 0  
Moisture  
Dew Point 37 °F    
Average Humidity 88    
Maximum Humidity 98    
Minimum Humidity 74    
Precipitation  
Precipitation 0.30 in 0.15 in 1.18 in (1975)
Month to date precipitation 3.12  
Year to date precipitation 7.51  
Sea Level Pressure  
Sea Level Pressure 30.13 in    
Wind  
Wind Speed 11 mph (North)    
Max Wind Speed 18 mph    
Max Gust Speed 23 mph    
Visibility 7 miles    
Events Rain    
T = Trace of Precipitation, MM = Missing Value Source: NWS Daily Summary

Daily Weather History Graph

Daily Weather History Graph

Search for Another Location

Airport or City:

Trip Planner

Search our weather history database for the weather conditions in past years. The results will help you decide how hot, cold, wet, or windy it might be!

Date:

Astronomy

Mar. 29, 2014 Rise Set
Actual Time 6:39 AM CDT 7:11 PM CDT
Civil Twilight 6:13 AM CDT 7:38 PM CDT
Nautical Twilight 5:41 AM CDT 8:09 PM CDT
Astronomical Twilight 5:09 AM CDT 8:42 PM CDT
Moon 5:47 AM CDT (3/29) 6:16 PM CDT (3/29)
Length of Visible Light 13h 25m
Length of Day
12h 31m
Waning Crescent, 2% of the Moon is Illuminated
Mar 29
Waning Crescent
Mar 30
New
Apr 7
First Quarter
Apr 15
Full
Apr 22
Last Quarter

Hourly Weather History & Observations

Time (CDT) Temp. Windchill Dew Point Humidity Pressure Visibility Wind Dir Wind Speed Gust Speed Precip Events Conditions
12:15 AM 44.6 °F 39.7 °F 40.1 °F 84% 30.09 in 10.0 mi North 9.2 mph - N/A   Clear
12:35 AM 44.6 °F 40.2 °F 40.1 °F 84% 30.08 in 10.0 mi North 8.1 mph - N/A   Mostly Cloudy
12:55 AM 44.6 °F 40.7 °F 40.1 °F 84% 30.08 in 10.0 mi North 6.9 mph - N/A   Overcast
1:15 AM 44.6 °F 40.2 °F 39.9 °F 84% 30.07 in 10.0 mi North 8.1 mph - N/A   Overcast
1:35 AM 44.6 °F 40.7 °F 39.2 °F 81% 30.09 in 10.0 mi North 6.9 mph - N/A   Overcast
1:55 AM 44.6 °F 41.4 °F 39.2 °F 81% 30.11 in 10.0 mi North 5.8 mph - N/A   Overcast
2:15 AM 44.2 °F 39.7 °F 39.4 °F 83% 30.10 in 10.0 mi North 8.1 mph - N/A   Light Drizzle
2:35 AM 43.7 °F 38.6 °F 39.4 °F 85% 30.09 in 10.0 mi North 9.2 mph - N/A Rain Light Rain
2:55 AM 43.2 °F 37.4 °F 39.4 °F 86% 30.07 in 10.0 mi NNE 10.4 mph - N/A Rain Light Rain
3:15 AM 42.6 °F 37.2 °F 39.2 °F 88% 30.07 in 7.0 mi North 9.2 mph - N/A Rain Rain
3:35 AM 41.7 °F 34.8 °F 39.2 °F 91% 30.06 in 4.0 mi NNE 12.7 mph - 0.04 in Rain Rain
3:55 AM 41.0 °F 34.3 °F 39.2 °F 93% 30.05 in 5.0 mi NNE 11.5 mph - 0.08 in Rain Rain
4:15 AM 40.3 °F 33.0 °F 38.5 °F 93% 30.05 in 5.0 mi NNE 12.7 mph - 0.03 in Rain Rain
4:35 AM 39.7 °F 32.7 °F 38.3 °F 95% 30.05 in 5.0 mi NNE 11.5 mph - 0.06 in Rain Rain
4:55 AM 39.2 °F 30.5 °F 37.8 °F 95% 30.04 in 4.0 mi NNE 16.1 mph 20.7 mph 0.09 in Rain Rain
5:15 AM 38.8 °F 30.8 °F 37.4 °F 95% 30.04 in 4.0 mi NNE 13.8 mph - 0.03 in Rain Rain
5:35 AM 38.7 °F 30.1 °F 37.4 °F 95% 30.03 in 4.0 mi NNE 15.0 mph - 0.05 in Rain Light Rain
5:55 AM 38.7 °F 31.4 °F 37.4 °F 95% 30.03 in 3.0 mi NNE 11.5 mph - 0.08 in Rain Rain
6:15 AM 38.7 °F 30.9 °F 37.6 °F 96% 30.03 in 4.0 mi NE 12.7 mph - 0.02 in Rain Light Rain
6:35 AM 38.7 °F 31.8 °F 37.8 °F 97% 30.04 in 4.0 mi North 10.4 mph - 0.02 in Rain Light Rain
6:55 AM 38.5 °F 31.1 °F 37.8 °F 97% 30.05 in 4.0 mi North 11.5 mph - 0.03 in Rain Light Rain
7:15 AM 38.3 °F 30.9 °F 37.4 °F 97% 30.06 in 3.0 mi North 11.5 mph 18.4 mph 0.01 in Rain Light Rain
7:35 AM 38.3 °F 30.1 °F 37.4 °F 97% 30.07 in 3.0 mi North 13.8 mph - 0.01 in Rain Light Rain
7:55 AM 38.1 °F 29.5 °F 37.4 °F 97% 30.08 in 4.0 mi North 15.0 mph 18.4 mph 0.01 in Rain Light Rain
8:15 AM 37.9 °F 29.6 °F 37.4 °F 98% 30.09 in 4.0 mi North 13.8 mph - N/A Rain Light Rain
8:35 AM 37.8 °F 30.2 °F 37.0 °F 97% 30.09 in 4.0 mi North 11.5 mph 17.3 mph N/A Rain Light Rain
8:55 AM 37.9 °F 30.0 °F 37.2 °F 97% 30.10 in 4.0 mi North 12.7 mph 16.1 mph 0.01 in Rain Light Rain
9:15 AM 38.3 °F 30.1 °F 37.4 °F 97% 30.10 in 4.0 mi North 13.8 mph - N/A   Overcast
9:35 AM 38.5 °F 30.7 °F 37.6 °F 97% 30.11 in 5.0 mi NNW 12.7 mph - N/A   Overcast
9:55 AM 38.7 °F 30.9 °F 37.6 °F 96% 30.11 in 5.0 mi North 12.7 mph - N/A   Overcast
10:15 AM 39.4 °F 31.4 °F 37.9 °F 95% 30.11 in 5.0 mi North 13.8 mph 18.4 mph N/A   Overcast
10:35 AM 40.1 °F 31.6 °F 38.3 °F 93% 30.11 in 7.0 mi North 16.1 mph - N/A   Overcast
10:55 AM 41.0 °F 32.8 °F 38.5 °F 91% 30.10 in 7.0 mi North 16.1 mph - N/A   Overcast
11:15 AM 41.0 °F 33.5 °F 38.1 °F 89% 30.11 in 7.0 mi NNW 13.8 mph - N/A   Overcast
11:35 AM 41.0 °F 34.3 °F 37.8 °F 88% 30.11 in 7.0 mi North 11.5 mph 20.7 mph N/A   Overcast
11:55 AM 41.2 °F 34.1 °F 37.6 °F 87% 30.11 in 7.0 mi North 12.7 mph 20.7 mph N/A   Overcast
12:15 PM 41.5 °F 33.8 °F 37.9 °F 87% 30.11 in 7.0 mi NNW 15.0 mph - N/A   Overcast
12:35 PM 41.9 °F 35.0 °F 38.1 °F 86% 30.11 in 7.0 mi NNW 12.7 mph - N/A   Overcast
12:55 PM 41.9 °F 34.6 °F 37.9 °F 86% 30.11 in 7.0 mi North 13.8 mph - N/A   Overcast
1:15 PM 41.7 °F 34.8 °F 37.6 °F 85% 30.11 in 7.0 mi North 12.7 mph - N/A   Overcast
1:35 PM 41.2 °F 33.4 °F 37.4 °F 86% 30.11 in 5.0 mi North 15.0 mph 21.9 mph N/A   Overcast
1:55 PM 41.4 °F 34.0 °F 37.6 °F 86% 30.12 in 5.0 mi North 13.8 mph - N/A   Overcast
2:10 PM 41.9 °F 35.4 °F 38.1 °F 86% 30.12 in 5.0 mi North 11.5 mph - N/A   Overcast
2:35 PM 41.5 °F 34.2 °F 37.8 °F 86% 30.12 in 5.0 mi NNW 13.8 mph 19.6 mph N/A   Overcast
2:55 PM 41.5 °F 33.8 °F 37.8 °F 86% 30.13 in 5.0 mi NNW 15.0 mph - N/A   Overcast
3:15 PM 41.5 °F 33.8 °F 37.9 °F 87% 30.13 in 5.0 mi NNW 15.0 mph - N/A   Overcast
3:35 PM 41.9 °F 35.4 °F 38.3 °F 87% 30.14 in 5.0 mi NNW 11.5 mph - N/A   Overcast
3:55 PM 41.4 °F 34.3 °F 38.1 °F 88% 30.15 in 5.0 mi NNW 12.7 mph - N/A   Overcast
4:15 PM 41.4 °F 34.3 °F 38.3 °F 89% 30.16 in 5.0 mi NNW 12.7 mph - N/A   Overcast
4:35 PM 41.9 °F 35.0 °F 38.7 °F 88% 30.16 in 5.0 mi NNW 12.7 mph 17.3 mph N/A   Overcast
4:55 PM 42.3 °F 36.3 °F 38.7 °F 87% 30.16 in 5.0 mi NNW 10.4 mph - N/A   Overcast
5:15 PM 42.4 °F 36.1 °F 38.5 °F 86% 30.17 in 5.0 mi NNW 11.5 mph - N/A   Overcast
5:35 PM 42.6 °F 35.2 °F 38.5 °F 85% 30.18 in 5.0 mi NW 15.0 mph - N/A   Haze
5:55 PM 42.4 °F 34.1 °F 38.5 °F 86% 30.19 in 5.0 mi NW 18.4 mph 21.9 mph N/A   Haze
6:15 PM 42.4 °F 35.7 °F 38.3 °F 85% 30.20 in 5.0 mi NW 12.7 mph 23.0 mph N/A   Overcast
6:35 PM 42.3 °F 35.5 °F 38.3 °F 86% 30.21 in 5.0 mi NW 12.7 mph - N/A   Overcast
6:55 PM 42.3 °F 35.5 °F 38.3 °F 86% 30.21 in 5.0 mi NW 12.7 mph - N/A   Overcast
7:15 PM 42.3 °F 36.8 °F 38.1 °F 85% 30.22 in 7.0 mi NNW 9.2 mph - N/A   Overcast
7:35 PM 42.3 °F 35.9 °F 37.4 °F 83% 30.22 in 10.0 mi NNW 11.5 mph 17.3 mph N/A   Overcast
7:55 PM 42.3 °F 35.9 °F 37.0 °F 82% 30.22 in 10.0 mi NNW 11.5 mph - N/A   Overcast
8:15 PM 42.1 °F 35.7 °F 36.5 °F 81% 30.23 in 10.0 mi NNW 11.5 mph - N/A   Overcast
8:35 PM 41.9 °F 36.3 °F 35.8 °F 79% 30.24 in 10.0 mi NNW 9.2 mph - N/A   Overcast
8:55 PM 41.7 °F 34.8 °F 34.7 °F 76% 30.24 in 10.0 mi NNW 12.7 mph - N/A   Overcast
9:15 PM 41.4 °F 33.0 °F 33.8 °F 74% 30.24 in 10.0 mi North 17.3 mph 23.0 mph N/A   Overcast
9:35 PM 41.0 °F 33.1 °F 33.4 °F 74% 30.25 in 10.0 mi North 15.0 mph 21.9 mph N/A   Overcast
9:55 PM 40.5 °F 34.1 °F 33.6 °F 77% 30.25 in 10.0 mi North 10.4 mph 17.3 mph N/A   Overcast
10:15 PM 40.1 °F 34.7 °F 33.3 °F 77% 30.25 in 10.0 mi NNW 8.1 mph - N/A   Overcast
10:35 PM 38.7 °F 33.6 °F 32.9 °F 80% 30.25 in 10.0 mi North 6.9 mph - N/A   Scattered Clouds
10:55 PM 37.9 °F 33.5 °F 32.5 °F 81% 30.26 in 10.0 mi NNW 5.8 mph - N/A   Clear
11:15 PM 37.2 °F 33.6 °F 32.4 °F 83% 30.26 in 10.0 mi NNW 4.6 mph - N/A   Clear
11:35 PM 36.3 °F 32.5 °F 32.0 °F 84% 30.26 in 10.0 mi NNW 4.6 mph - N/A   Clear
11:55 PM 35.1 °F 31.0 °F 32.0 °F 89% 30.25 in 10.0 mi NNW 4.6 mph - N/A   Clear